Location: St. Louis
(38.6270°N, 90.1994°W)
Time: 11:09:52
(UTC-06:00)

Altair - Pass Details

Date: 07 December 2021
Orbit: 1501 x 1683 km, 47.2° (Epoch: 25 January)

Event Time Altitude Azimuth Distance (km) Brightness Sun altitude
Rises 11:51:13 0° 184° (S) 4,861 11.4 28.7°
Reaches altitude 10° 11:55:28 10° 169° (S) 3,849 11.2 28.7°
Maximum altitude 12:02:03 21° 126° (SE) 3,051 9.7 28.6°
Drops below altitude 10° 12:08:28 10° 83° (E) 3,761 9.5 28.6°
Sets 12:12:30 0° 68° (ENE) 4,718 9.8 28.5°
